• In Netherlands
  • List of Countries
  • For 7 days
  • Water Temperature
  • Satellite Maps
  • Weather Map
  • Weather Widgets
  • user-avatar
    Login

    Hourly Weather Uige

    Today, 29 March, Wednesday

    Time Temperature Precipitation Wind Pressure Humidity
    00:00 +23°C° 0 mm 1 mps 690 mmHg 85%
    01:00 +23°C° 0 mm 1 mps 690 mmHg 87%
    02:00 +23°C° 0 mm 1 mps 690 mmHg 89%
    03:00 +22°C° 0 mm 1 mps 690 mmHg 92%
    04:00 +22°C° 0 mm 1 mps 690 mmHg 95%
    05:00 +23°C° 0.1 mm 1 mps 690 mmHg 95%
    06:00 +23°C° 0.1 mm 1 mps 690 mmHg 94%
    07:00 +23°C° 0.1 mm 1 mps 691 mmHg 94%
    08:00 +25°C° 0 mm 1 mps 691 mmHg 86%
    09:00 +27°C° 0 mm 1 mps 691 mmHg 78%
    10:00 +29°C° 0 mm 1 mps 692 mmHg 70%
    11:00 +30°C° 0 mm 1 mps 691 mmHg 63%
    12:00 +32°C° 0 mm 1 mps 691 mmHg 56%
    13:00 +33°C° 0 mm 1 mps 690 mmHg 50%
    14:00 +32°C° 0.3 mm 1 mps 690 mmHg 54%
    15:00 +32°C° 0.3 mm 1 mps 689 mmHg 59%
    16:00 +31°C° 0.3 mm 1 mps 688 mmHg 64%
    17:00 +29°C° 2.2 mm 1 mps 689 mmHg 73%
    18:00 +27°C° 2.2 mm 1 mps 689 mmHg 82%
    19:00 +25°C° 2.2 mm 1 mps 689 mmHg 90%
    20:00 +24°C° 1.2 mm 1 mps 690 mmHg 92%
    21:00 +24°C° 1.2 mm 1 mps 690 mmHg 93%
    22:00 +23°C° 1.2 mm 1 mps 691 mmHg 94%
    23:00 +23°C° 0.4 mm 1 mps 691 mmHg 95%

    Tomorrow, 30 March, Thursday

    Time Temperature Precipitation Wind Pressure Humidity
    00:00 +23°C° 0.4 mm 1 mps 691 mmHg 96%
    01:00 +23°C° 0.4 mm 1 mps 691 mmHg 97%
    02:00 +23°C° 0.2 mm 1 mps 690 mmHg 97%
    03:00 +22°C° 0.2 mm 1 mps 690 mmHg 98%
    04:00 +22°C° 0.2 mm 1 mps 690 mmHg 98%
    05:00 +23°C° 0.1 mm 1 mps 690 mmHg 98%
    06:00 +23°C° 0.1 mm 1 mps 690 mmHg 97%
    07:00 +21°C° 0.1 mm 0 mps 691 mmHg 96%
    08:00 +22°C° 0.1 mm 0 mps 691 mmHg 92%
    09:00 +23°C° 0.1 mm 0 mps 692 mmHg 87%
    10:00 +24°C° 0.1 mm 0 mps 692 mmHg 83%
    11:00 +26°C° 0.4 mm 0 mps 692 mmHg 77%
    12:00 +27°C° 0.4 mm 0 mps 692 mmHg 72%
    13:00 +29°C° 0.4 mm 0 mps 691 mmHg 67%
    14:00 +28°C° 0.6 mm 0 mps 691 mmHg 69%
    15:00 +29°C° 0.6 mm 1 mps 690 mmHg 71%
    16:00 +29°C° 0.6 mm 1 mps 689 mmHg 74%
    17:00 +27°C° 0.2 mm 1 mps 690 mmHg 80%
    18:00 +25°C° 0.2 mm 1 mps 690 mmHg 87%
    19:00 +24°C° 0.2 mm 1 mps 690 mmHg 93%
    20:00 +24°C° 0.3 mm 1 mps 691 mmHg 93%
    21:00 +23°C° 0.3 mm 1 mps 691 mmHg 94%
    22:00 +23°C° 0.3 mm 1 mps 692 mmHg 94%
    23:00 +23°C° 0.1 mm 1 mps 691 mmHg 95%

    Day after tomorrow, 31 March, Friday

    Time Temperature Precipitation Wind Pressure Humidity
    00:00 +23°C° 0.1 mm 1 mps 691 mmHg 96%
    01:00 +23°C° 0.1 mm 1 mps 691 mmHg 96%
    02:00 +22°C° 0.2 mm 1 mps 691 mmHg 96%
    03:00 +22°C° 0.2 mm 1 mps 690 mmHg 96%
    04:00 +22°C° 0.2 mm 1 mps 690 mmHg 96%
    05:00 +22°C° 0.1 mm 1 mps 691 mmHg 96%
    06:00 +23°C° 0.1 mm 1 mps 691 mmHg 95%
    07:00 +23°C° 0.1 mm 1 mps 692 mmHg 94%
    08:00 +25°C° 0.1 mm 1 mps 692 mmHg 86%
    09:00 +27°C° 0.1 mm 1 mps 693 mmHg 77%
    10:00 +29°C° 0.1 mm 1 mps 694 mmHg 69%
    11:00 +29°C° 0.3 mm 1 mps 693 mmHg 65%
    12:00 +30°C° 0.3 mm 1 mps 693 mmHg 62%
    13:00 +31°C° 0.3 mm 1 mps 692 mmHg 58%
    14:00 +30°C° 0.3 mm 1 mps 692 mmHg 63%
    15:00 +29°C° 0.3 mm 1 mps 691 mmHg 67%
    16:00 +28°C° 0.3 mm 1 mps 690 mmHg 72%
    17:00 +27°C° 0.2 mm 1 mps 691 mmHg 78%
    18:00 +25°C° 0.2 mm 1 mps 691 mmHg 84%
    19:00 +24°C° 0.2 mm 1 mps 691 mmHg 90%
    20:00 +23°C° 0.1 mm 1 mps 692 mmHg 92%
    21:00 +23°C° 0.1 mm 1 mps 692 mmHg 94%
    22:00 +22°C° 0.1 mm 1 mps 693 mmHg 96%
    23:00 +22°C° 0.3 mm 1 mps 692 mmHg 95%

    1 April, Saturday

    Time Temperature Precipitation Wind Pressure Humidity
    00:00 +22°C° 0.3 mm 1 mps 692 mmHg 95%
    01:00 +21°C° 0.3 mm 1 mps 691 mmHg 94%
    02:00 +19°C° 0.4 mm 0 mps 691 mmHg 94%
    03:00 +20°C° 0.4 mm 0 mps 691 mmHg 94%
    04:00 +20°C° 0.4 mm 0 mps 691 mmHg 94%
    05:00 +20°C° 0.1 mm 0 mps 692 mmHg 93%
    06:00 +22°C° 0.1 mm 1 mps 692 mmHg 92%
    07:00 +22°C° 0.1 mm 1 mps 693 mmHg 91%
    08:00 +24°C° 0.1 mm 1 mps 693 mmHg 85%
    09:00 +25°C° 0.1 mm 1 mps 693 mmHg 78%
    10:00 +27°C° 0.1 mm 1 mps 693 mmHg 71%
    11:00 +27°C° 0.1 mm 1 mps 693 mmHg 68%
    12:00 +28°C° 0.1 mm 1 mps 692 mmHg 66%
    13:00 +29°C° 0.1 mm 1 mps 691 mmHg 63%
    14:00 +29°C° 0.1 mm 1 mps 691 mmHg 64%
    15:00 +28°C° 0.1 mm 1 mps 690 mmHg 65%
    16:00 +28°C° 0.1 mm 1 mps 689 mmHg 66%
    17:00 +26°C° 0 mm 1 mps 690 mmHg 72%
    18:00 +25°C° 0 mm 1 mps 690 mmHg 78%
    19:00 +23°C° 0 mm 1 mps 690 mmHg 84%
    20:00 +23°C° 0 mm 1 mps 690 mmHg 83%
    21:00 +23°C° 0 mm 1 mps 691 mmHg 82%
    22:00 +23°C° 0 mm 1 mps 691 mmHg 81%
    23:00 +23°C° 0 mm 1 mps 691 mmHg 82%

    2 April, Sunday

    Time Temperature Precipitation Wind Pressure Humidity
    00:00 +22°C° 0 mm 1 mps 690 mmHg 82%
    01:00 +22°C° 0 mm 1 mps 690 mmHg 83%
    02:00 +22°C° 0 mm 1 mps 690 mmHg 84%
    03:00 +22°C° 0 mm 1 mps 690 mmHg 85%
    04:00 +21°C° 0 mm 1 mps 689 mmHg 86%
    05:00 +22°C° 0 mm 1 mps 690 mmHg 86%
    06:00 +22°C° 0 mm 1 mps 691 mmHg 86%
    07:00 +23°C° 0 mm 1 mps 691 mmHg 86%
    08:00 +25°C° 0.1 mm 2 mps 692 mmHg 78%
    09:00 +27°C° 0.1 mm 2 mps 692 mmHg 71%
    10:00 +29°C° 0.1 mm 3 mps 693 mmHg 63%
    11:00 +30°C° 0.5 mm 2 mps 692 mmHg 61%
    12:00 +31°C° 0.5 mm 2 mps 691 mmHg 60%
    13:00 +31°C° 0.5 mm 2 mps 691 mmHg 58%
    14:00 +31°C° 0.7 mm 2 mps 690 mmHg 63%
    15:00 +30°C° 0.7 mm 2 mps 690 mmHg 67%
    16:00 +29°C° 0.7 mm 1 mps 689 mmHg 71%
    17:00 +28°C° 0.4 mm 1 mps 690 mmHg 77%
    18:00 +26°C° 0.4 mm 1 mps 690 mmHg 84%
    19:00 +24°C° 0.4 mm 1 mps 690 mmHg 90%
    20:00 +23°C° 0 mm 1 mps 690 mmHg 91%
    21:00 +23°C° 0 mm 1 mps 690 mmHg 92%
    22:00 +23°C° 0 mm 1 mps 691 mmHg 93%
    23:00 +23°C° 0 mm 1 mps 690 mmHg 94%

    3 April, Monday

    Time Temperature Precipitation Wind Pressure Humidity
    00:00 +22°C° 0 mm 1 mps 690 mmHg 94%
    01:00 +22°C° 0 mm 1 mps 690 mmHg 95%
    02:00 +22°C° 0 mm 1 mps 690 mmHg 95%
    03:00 +22°C° 0 mm 1 mps 690 mmHg 94%
    04:00 +22°C° 0 mm 1 mps 689 mmHg 94%
    05:00 +23°C° 0.1 mm 1 mps 690 mmHg 93%
    06:00 +23°C° 0.1 mm 1 mps 691 mmHg 92%
    07:00 +23°C° 0.1 mm 1 mps 691 mmHg 91%
    08:00 +26°C° 0 mm 1 mps 692 mmHg 80%
    09:00 +28°C° 0 mm 2 mps 692 mmHg 68%
    10:00 +31°C° 0 mm 2 mps 692 mmHg 56%
    11:00 +31°C° 0.3 mm 2 mps 692 mmHg 55%
    12:00 +32°C° 0.3 mm 2 mps 691 mmHg 53%
    13:00 +32°C° 0.3 mm 2 mps 690 mmHg 52%
    14:00 +32°C° 0.4 mm 2 mps 690 mmHg 56%
    15:00 +31°C° 0.4 mm 2 mps 689 mmHg 60%
    16:00 +31°C° 0.4 mm 1 mps 689 mmHg 64%
    17:00 +29°C° 0.3 mm 1 mps 689 mmHg 70%
    18:00 +27°C° 0.3 mm 1 mps 689 mmHg 77%
    19:00 +25°C° 0.3 mm 1 mps 689 mmHg 83%
    20:00 +24°C° 1.5 mm 1 mps 690 mmHg 86%
    21:00 +24°C° 1.5 mm 1 mps 690 mmHg 89%
    22:00 +23°C° 1.5 mm 1 mps 690 mmHg 92%
    23:00 +23°C° 1.8 mm 1 mps 690 mmHg 93%
    Show more